Location: Alfortville
(48.8058°N, 2.4204°E)
Time: 22:32:29
(UTC+00:00)

SR - Pass Details

Date: 27 April 2026
Orbit: 568 x 852 km, 66.7° (Epoch: 19 May)

Event Time Altitude Azimuth Distance (km) Brightness Sun altitude
Rises 19:32:56 0° 324° (NW) 3,300 ? -5.7°
Reaches altitude 10° 19:35:19 10° 326° (NNW) 2,401 ? -6.1°
Maximum altitude 19:40:54 78° 53° (NE) 861 ? -6.9°
Drops below altitude 10° 19:46:41 10° 140° (SE) 2,474 ? -7.7°
Enters shadow 19:47:12 - 141° (SE) 2,668 ? -7.8°
